Location: Glen Waverley
(37.8830°S, 145.1670°E)
Time: 12:52:20
(UTC+10:00)

ISS - Visible Passes

Search period start: 22 July 2017 00:00
Search period end: 01 August 2017 00:00
Orbit: 400 x 408 km, 51.6° (Epoch: 22 July)

Date Brightness Start Highest point End Pass type
(mag) Time Alt. Az. Time Alt. Az. Time Alt. Az.
22 Jul -0.4 17:54:13 10° W 17:56:01 14° NW 17:57:47 10° NNW visible
28 Jul -0.5 06:11:26 10° NNE 06:13:11 14° NE 06:14:56 10° E visible
30 Jul -2.1 06:01:33 10° NNW 06:04:36 34° NE 06:07:41 10° ESE visible
31 Jul -1.1 05:11:24 15° NNE 05:12:21 17° NE 05:14:38 10° E visible
31 Jul -3.4 06:45:22 10° WNW 06:48:34 44° SW 06:51:50 10° SE visible
